| time (UTC) | temp F | wind direction | speed MPH | gust MPH | rain 1hr in | rain 24hr in | rain mn in | humidity % | barometer mb |
| 20260508170053 | 74 | 269 | 0.0 | 3.0 | 0.00 | 0.00 | 0.00 | 66 | 1011.7 |
| 20260508164550 | 72 | 219 | 0.0 | 4.0 | 0.00 | 0.00 | 0.00 | 68 | 1011.9 |
| 20260508163051 | 70 | 223 | 0.0 | 4.0 | 0.00 | 0.00 | 0.00 | 68 | 1012.3 |
| 20260508161541 | 69 | 285 | 0.0 | 5.0 | 0.00 | 0.00 | 0.00 | 70 | 1012.7 |
| 20260508160039 | 69 | 245 | 1.0 | 5.0 | 0.00 | 0.00 | 0.00 | 69 | 1012.9 |
| 20260508154537 | 68 | 143 | 0.0 | 4.0 | 0.00 | 0.00 | 0.00 | 69 | 1013.0 |
| 20260508153034 | 67 | 250 | 0.0 | 4.0 | 0.00 | 0.00 | 0.00 | 69 | 1013.1 |
| 20260508151536 | 67 | 113 | 0.0 | 3.0 | 0.00 | 0.00 | 0.00 | 70 | 1013.4 |
| 20260508150033 | 66 | 122 | 0.0 | 3.0 | 0.00 | 0.00 | 0.00 | 71 | 1013.4 |
| 20260508144527 | 66 | 273 | 1.0 | 5.0 | 0.00 | 0.00 | 0.00 | 71 | 1013.3 |
| 20260508143029 | 65 | 224 | 0.0 | 5.0 | 0.00 | 0.00 | 0.00 | 71 | 1013.6 |
| 20260508141538 | 65 | 240 | 0.0 | 2.0 | 0.00 | 0.00 | 0.00 | 74 | 1013.4 |
| 20260508140021 | 64 | 252 | 1.0 | 6.0 | 0.00 | 0.00 | 0.00 | 76 | 1013.5 |
| 20260508134523 | 64 | 83 | 0.0 | 3.0 | 0.00 | 0.00 | 0.00 | 76 | 1013.5 |
| 20260508133018 | 64 | 294 | 0.0 | 3.0 | 0.00 | 0.00 | 0.00 | 77 | 1013.5 |
| 20260508131516 | 63 | 167 | 0.0 | 2.0 | 0.00 | 0.00 | 0.00 | 80 | 1013.5 |
| 20260508130013 | 62 | 284 | 0.0 | 1.0 | 0.00 | 0.00 | 0.00 | 81 | 1013.6 |
| 20260508124512 | 62 | 172 | 0.0 | 0.0 | 0.00 | 0.00 | 0.00 | 82 | 1014.1 |
| 20260508123009 | 0 | 0.0 | 0.0 | 0.00 | 0.00 | 0.00 | 1013.5 | ||
| 20260508121510 | 0 | 0.0 | 0.0 | 0.00 | 0.00 | 0.00 | 1013.7 | ||
| 20260508120100 | 0 | 0.0 | 0.0 | 0.00 | 0.00 | 0.00 | 1014.3 | ||
| 20260508114556 | 0 | 0.0 | 0.0 | 0.00 | 0.00 | 0.00 | 1013.8 | ||
| 20260508113105 | 0 | 0.0 | 0.0 | 0.00 | 0.00 | 0.00 | 1013.7 | ||
| 20260508111548 | 0 | 0.0 | 0.0 | 0.00 | 0.00 | 0.00 | 1013.6 | ||
| 20260508110042 | 0 | 0.0 | 0.0 | 0.00 | 0.00 | 0.00 | 1013.4 | ||
| 20260508104539 | 0 | 0.0 | 0.0 | 0.00 | 0.00 | 0.00 | 1013.5 | ||
| 20260508103036 | 0 | 0.0 | 0.0 | 0.00 | 0.00 | 0.00 | 1013.7 | ||
| 20260508101532 | 0 | 0.0 | 0.0 | 0.00 | 0.00 | 0.00 | 1013.2 | ||
| 20260508100026 | 0 | 0.0 | 0.0 | 0.00 | 0.00 | 0.00 | 1013.0 | ||
| 20260508094522 | 60 | 124 | 0.0 | 0.0 | 0.00 | 0.00 | 0.00 | 81 | 1013.2 |
| 20260508093020 | 61 | 124 | 0.0 | 1.0 | 0.00 | 0.00 | 0.00 | 82 | 1013.1 |
| 20260508091532 | 61 | 124 | 0.0 | 0.0 | 0.00 | 0.00 | 0.00 | 81 | 1013.3 |
| 20260508090030 | 61 | 124 | 0.0 | 0.0 | 0.00 | 0.00 | 0.00 | 81 | 1013.3 |
| 20260508084518 | 62 | 124 | 0.0 | 0.0 | 0.00 | 0.00 | 0.00 | 80 | 1013.4 |
| 20260508083015 | 62 | 124 | 0.0 | 0.0 | 0.00 | 0.00 | 0.00 | 79 | 1013.5 |
| 20260508081514 | 62 | 124 | 0.0 | 0.0 | 0.00 | 0.00 | 0.00 | 79 | 1013.7 |
| 20260508080019 | 62 | 128 | 0.0 | 0.0 | 0.00 | 0.00 | 0.00 | 80 | 1013.4 |
| 20260508074509 | 61 | 200 | 0.0 | 1.0 | 0.00 | 0.00 | 0.00 | 80 | 1014.0 |
| 20260508073008 | 61 | 211 | 0.0 | 0.0 | 0.00 | 0.00 | 0.00 | 81 | 1014.6 |
| 20260508071520 | 61 | 211 | 0.0 | 0.0 | 0.00 | 0.00 | 0.00 | 80 | 1014.8 |
| 20260508070005 | 62 | 211 | 0.0 | 0.0 | 0.00 | 0.00 | 0.00 | 79 | 1014.6 |
| 20260508064504 | 61 | 211 | 0.0 | 0.0 | 0.00 | 0.00 | 0.00 | 79 | 1014.5 |
| 20260508063002 | 61 | 211 | 0.0 | 0.0 | 0.00 | 0.00 | 0.00 | 78 | 1014.6 |
| 20260508061604 | 61 | 212 | 0.0 | 0.0 | 0.00 | 0.00 | 0.00 | 79 | 1014.6 |
| 20260508060058 | 60 | 211 | 0.0 | 0.0 | 0.00 | 0.00 | 0.00 | 80 | 1014.9 |
| 20260508054554 | 60 | 211 | 0.0 | 0.0 | 0.00 | 0.00 | 0.00 | 81 | 1014.9 |
| 20260508053053 | 59 | 211 | 0.0 | 0.0 | 0.00 | 0.00 | 0.00 | 82 | 1014.9 |
| 20260508051551 | 59 | 211 | 0.0 | 0.0 | 0.00 | 0.00 | 0.00 | 81 | 1014.8 |
| 20260508050050 | 59 | 211 | 0.0 | 0.0 | 0.00 | 0.00 | 0.00 | 81 | 1014.9 |
| 20260508044550 | 59 | 211 | 0.0 | 0.0 | 0.00 | 0.00 | 0.00 | 81 | 1014.9 |
| 20260508043051 | 60 | 211 | 0.0 | 0.0 | 0.00 | 0.00 | 0.00 | 81 | 1015.0 |
| 20260508041548 | 60 | 211 | 0.0 | 0.0 | 0.00 | 0.00 | 0.00 | 81 | 1014.9 |
| 20260508040047 | 60 | 211 | 0.0 | 0.0 | 0.00 | 0.00 | 0.00 | 80 | 1014.8 |
| 20260508034547 | 60 | 211 | 0.0 | 0.0 | 0.00 | 0.00 | 0.00 | 79 | 1014.7 |
| 20260508033047 | 60 | 211 | 0.0 | 0.0 | 0.00 | 0.00 | 0.00 | 78 | 1014.5 |
| 20260508031545 | 61 | 211 | 0.0 | 0.0 | 0.00 | 0.00 | 0.00 | 75 | 1014.6 |
| 20260508030047 | 62 | 211 | 0.0 | 0.0 | 0.00 | 0.00 | 0.00 | 74 | 1014.5 |
| 20260508024545 | 62 | 211 | 0.0 | 0.0 | 0.00 | 0.00 | 0.00 | 72 | 1014.3 |
| 20260508023044 | 63 | 211 | 0.0 | 0.0 | 0.00 | 0.00 | 0.00 | 71 | 1014.1 |
| 20260508021548 | 64 | 211 | 0.0 | 0.0 | 0.00 | 0.00 | 0.00 | 68 | 1014.1 |
| 20260508020042 | 64 | 210 | 0.0 | 0.0 | 0.00 | 0.00 | 0.00 | 68 | 1014.0 |
| 20260508014542 | 65 | 211 | 0.0 | 0.0 | 0.00 | 0.00 | 0.00 | 65 | 1013.9 |
| 20260508013042 | 66 | 211 | 0.0 | 0.0 | 0.00 | 0.00 | 0.00 | 63 | 1014.0 |
| 20260508011542 | 66 | 207 | 0.0 | 0.0 | 0.00 | 0.00 | 0.00 | 62 | 1013.9 |
| 20260508010041 | 67 | 207 | 0.0 | 3.0 | 0.00 | 0.00 | 0.00 | 61 | 1014.0 |
| 20260508004542 | 67 | 257 | 0.0 | 3.0 | 0.00 | 0.00 | 0.00 | 59 | 1013.8 |
| 20260508003040 | 67 | 239 | 0.0 | 6.0 | 0.00 | 0.00 | 0.00 | 59 | 1013.9 |
| 20260508001539 | 68 | 262 | 1.0 | 3.0 | 0.00 | 0.00 | 0.00 | 59 | 1013.9 |
| 20260508000036 | 69 | 297 | 0.0 | 3.0 | 0.00 | 0.00 | 0.00 | 59 | 1014.2 |
| 20260507234534 | 69 | 156 | 1.0 | 4.0 | 0.00 | 0.00 | 0.00 | 58 | 1014.2 |
| 20260507233038 | 70 | 196 | 0.0 | 5.0 | 0.00 | 0.00 | 0.00 | 58 | 1014.1 |
| 20260507231533 | 71 | 214 | 0.0 | 2.0 | 0.00 | 0.00 | 0.00 | 54 | 1014.1 |
| 20260507230032 | 71 | 121 | 0.0 | 0.0 | 0.00 | 0.00 | 0.00 | 50 | 1014.1 |
| 20260507224535 | 72 | 121 | 0.0 | 0.0 | 0.00 | 0.00 | 0.00 | 55 | 1014.3 |
| 20260507223030 | 72 | 122 | 0.0 | 0.0 | 0.00 | 0.00 | 0.00 | 52 | 1014.3 |
| 20260507221527 | 72 | 120 | 0.0 | 0.0 | 0.00 | 0.00 | 0.00 | 55 | 1014.5 |
| 20260507220026 | 73 | 121 | 0.0 | 0.0 | 0.00 | 0.00 | 0.00 | 52 | 1014.5 |
| 20260507214528 | 72 | 122 | 0.0 | 0.0 | 0.00 | 0.05 | 0.00 | 46 | 1014.6 |
| 20260507213025 | 73 | 122 | 0.0 | 0.0 | 0.00 | 0.05 | 0.00 | 50 | 1014.9 |
| 20260507211521 | 73 | 123 | 0.0 | 2.0 | 0.00 | 0.05 | 0.00 | 48 | 1015.1 |
| 20260507210033 | 73 | 117 | 0.0 | 1.0 | 0.00 | 0.05 | 0.00 | 49 | 1015.3 |
| 20260507204519 | 73 | 121 | 0.0 | 3.0 | 0.00 | 0.05 | 0.00 | 46 | 1015.2 |
| 20260507203020 | 74 | 308 | 0.0 | 3.0 | 0.00 | 0.05 | 0.00 | 48 | 1015.1 |
| 20260507201517 | 74 | 120 | 0.0 | 3.0 | 0.00 | 0.05 | 0.00 | 49 | 1015.5 |
| 20260507200018 | 74 | 111 | 1.0 | 4.0 | 0.00 | 0.05 | 0.00 | 44 | 1015.7 |
| 20260507194513 | 76 | 98 | 0.0 | 2.0 | 0.00 | 0.05 | 0.00 | 44 | 1015.8 |
| 20260507193011 | 76 | 132 | 0.0 | 2.0 | 0.00 | 0.05 | 0.00 | 46 | 1016.2 |
| 20260507191508 | 76 | 110 | 0.0 | 3.0 | 0.00 | 0.05 | 0.00 | 45 | 1016.4 |
| 20260507190006 | 74 | 62 | 0.0 | 6.0 | 0.00 | 0.05 | 0.00 | 48 | 1016.7 |
| 20260507184514 | 74 | 115 | 0.0 | 5.0 | 0.00 | 0.05 | 0.00 | 49 | 1016.7 |
| 20260507183002 | 74 | 91 | 0.0 | 3.0 | 0.00 | 0.05 | 0.00 | 53 | 1016.8 |
| 20260507181502 | 73 | 163 | 1.0 | 4.0 | 0.00 | 0.05 | 0.00 | 49 | 1017.1 |
| 20260507180000 | 73 | 106 | 0.0 | 4.0 | 0.00 | 0.05 | 0.00 | 53 | 1017.2 |
| 20260507174558 | 72 | 79 | 0.0 | 3.0 | 0.00 | 0.05 | 0.00 | 54 | 1017.6 |
| 20260507173055 | 70 | 103 | 0.0 | 5.0 | 0.00 | 0.05 | 0.00 | 56 | 1017.7 |
| 20260507171553 | 70 | 124 | 0.0 | 3.0 | 0.00 | 0.05 | 0.00 | 54 | 1018.1 |